カタログに戻る

FENGYUN 1C DEB

運用中PO
NORAD 29771·DEBRIS·🇨🇳 China

打ち上げ May 10, 1999 から Taiyuan Satellite Launch Center

Loading…

次のパス (今後24時間)

TLE

最新Source: Space-Track

元期: Sep 14, 2026, 13:59 UTC

1 29771U 99025BM  26257.58314590  .00108903  00000-0  56238-2 0  9995
2 29771  99.6099 169.0487 0010503 337.9264  22.1508 15.15758865372403

AllMySatでFENGYUN 1C DEBをリアルタイム追跡

Download on the App Store